Temp
-12 -12 -12 -12 -12 -12 -12 -12 -12 -12 -12 -12 -12 -12 -12 -12 -12 -12 -13 -13 -13 -13 -13 -13 -13 -13 -13 -13 -13 -13 -13 -13
-12 -12 -12 -12 -12 -12 -12 -12 -13 -12 -12 -12 -12 -13 -13 -13 -13 -13 -13 -13 -13 -13 -13 -13 -13 -13 -13 -13 -13 -13 -13 -13
-12 -12 -12 -12 -12 -12 -12 -12 -12 -12 -12 -12 -12 -12 -13 -13 -13 -13 -13 -13 -13 -13 -13 -13 -13 -13 -13 -13 -13 -13 -13 -13
-12 -12 -12 -12 -12 -12 -12 -12 -12 -12 -12 -12 -13 -13 -12 -12 -12 -13 -13 -13 -13 -13 -13 -13 -13 -13 -13 -13 -13 -13 -13 -13
-11 -12 -12 -12 -12 -12 -12 -12 -12 -12 -12 -13 -13 -13 -13 -13 -13 -13 -13 -13 -13 -13 -13 -13 -13 -13 -13 -13 -13 -13 -13 -13
-12 -12 -12 -12 -12 -12 -12 -12 -12 -12 -12 -12 -13 -13 -13 -13 -13 -13 -13 -13 -13 -13 -13 -13 -13 -13 -13 -13 -13 -13 -13 -14
-12 -12 -12 -12 -12 -12 -12 -12 -12 -12 -12 -12 -12 -13 -13 -13 -13 -13 -13 -13 -13 -13 -14 -14 -13 -13 -13 -13 -14 -14 -14 -14
-12 -12 -12 -12 -12 -12 -12 -12 -12 -12 -12 -12 -12 -12 -13 -13 -13 -13 -13 -13 -13 -14 -14 -13 -13 -14 -14 -14 -14 -14 -14 -14
-12 -12 -12 -12 -12 -12 -12 -12 -12 -12 -12 -12 -12 -12 -13 -13 -13 -13 -13 -13 -14 -14 -14 -14 -14 -14 -14 -14 -14 -14 -14 -14
-12 -12 -12 -13 -13 -13 -12 -12 -12 -12 -12 -12 -12 -13 -13 -13 -13 -13 -13 -14 -14 -13 -14 -14 -14 -14 -14 -14 -14 -14 -14 -14
-12 -12 -12 -13 -13 -13 -13 -12 -13 -13 -13 -12 -12 -13 -13 -13 -13 -13 -13 -13 -13 -13 -14 -14 -14 -14 -14 -14 -14 -14 -14 -14
-12 -12 -13 -13 -13 -13 -13 -13 -13 -13 -13 -13 -13 -13 -13 -13 -13 -13 -13 -13 -13 -13 -13 -13 -13 -14 -13 -14 -14 -14 -14 -15
-13 -13 -13 -13 -13 -13 -13 -13 -13 -13 -13 -13 -13 -13 -13 -13 -13 -13 -13 -13 -13 -13 -13 -13 -13 -13 -13 -14 -14 -14 -14 -15
-12 -12 -13 -13 -13 -13 -13 -13 -13 -13 -13 -13 -13 -13 -13 -13 -13 -13 -13 -13 -13 -13 -13 -13 -13 -13 -13 -14 -14 -14 -15 -15
-12 -12 -13 -13 -13 -13 -13 -13 -13 -13 -13 -13 -13 -13 -13 -13 -13 -14 -13 -13 -13 -13 -13 -13 -13 -14 -14 -14 -14 -15 -15 -15
-12 -12 -13 -13 -13 -13 -13 -13 -13 -13 -13 -13 -13 -13 -13 -13 -13 -13 -14 -14 -13 -13 -13 -13 -13 -14 -14 -14 -14 -15 -15 -16
-13 -12 -13 -13 -13 -13 -13 -13 -14 -13 -14 -13 -13 -13 -13 -13 -13 -13 -14 -13 -13 -13 -13 -13 -14 -14 -14 -14 -14 -15 -15 -16
-13 -14 -14 -13 -13 -13 -13 -13 -14 -14 -14 -14 -14 -13 -13 -13 -13 -13 -13 -13 -13 -13 -13 -14 -14 -14 -14 -15 -15 -15 -16 -16
-13 -14 -14 -14 -13 -13 -13 -13 -14 -14 -14 -14 -14 -14 -14 -14 -14 -14 -14 -14 -14 -14 -14 -14 -15 -15 -15 -15 -15 -15 -16 -17
-13 -13 -13 -14 -13 -14 -13 -14 -14 -14 -14 -14 -14 -14 -14 -14 -14 -14 -14 -14 -14 -14 -15 -15 -15 -15 -15 -15 -15 -16 -17 -17
Height
5865 5863 5861 5860 5858 5856 5854 5852 5851 5850 5849 5850 5850 5849 5848 5847 5847 5847 5847 5846 5846 5845 5845 5845 5844 5844 5843 5842 5841 5841 5839 5838
5863 5861 5860 5858 5857 5855 5853 5851 5850 5848 5848 5848 5848 5848 5848 5848 5846 5846 5846 5846 5845 5844 5844 5843 5843 5842 5841 5841 5839 5838 5836 5835
5862 5860 5858 5857 5856 5854 5852 5850 5849 5848 5847 5847 5847 5847 5846 5846 5847 5846 5846 5845 5845 5844 5844 5843 5842 5842 5841 5840 5838 5836 5834 5832
5860 5858 5857 5856 5854 5852 5850 5849 5848 5846 5846 5846 5846 5847 5847 5847 5846 5845 5845 5845 5844 5843 5842 5842 5840 5839 5838 5837 5836 5834 5832 5830
5859 5857 5855 5854 5852 5851 5850 5848 5847 5845 5845 5845 5845 5845 5846 5845 5845 5845 5845 5844 5843 5843 5841 5840 5838 5836 5836 5834 5832 5831 5828 5826
5858 5856 5854 5852 5851 5850 5849 5847 5845 5845 5844 5844 5845 5845 5845 5845 5844 5845 5845 5844 5843 5842 5840 5839 5837 5836 5835 5833 5831 5829 5826 5824
5856 5855 5853 5850 5849 5848 5847 5846 5845 5845 5844 5843 5843 5844 5845 5844 5844 5844 5844 5844 5843 5841 5839 5837 5836 5835 5833 5832 5829 5827 5824 5821
5855 5852 5851 5849 5847 5846 5845 5844 5844 5843 5842 5843 5842 5843 5844 5844 5843 5843 5842 5840 5839 5838 5837 5836 5834 5833 5830 5828 5825 5822 5819 5817
5852 5850 5848 5847 5844 5843 5843 5843 5842 5842 5842 5840 5841 5842 5842 5843 5842 5841 5839 5838 5837 5836 5835 5834 5832 5830 5827 5824 5822 5818 5815 5811
5848 5847 5845 5843 5841 5840 5840 5839 5840 5840 5840 5839 5838 5838 5839 5839 5838 5837 5836 5835 5834 5833 5832 5831 5829 5827 5824 5821 5818 5814 5811 5807
5844 5843 5841 5840 5839 5837 5837 5837 5837 5837 5837 5837 5836 5836 5835 5835 5835 5834 5832 5832 5831 5830 5829 5827 5825 5823 5820 5818 5814 5811 5807 5803
5840 5838 5838 5837 5836 5834 5833 5833 5832 5833 5833 5834 5833 5833 5833 5832 5831 5830 5829 5827 5826 5826 5825 5823 5822 5820 5817 5814 5810 5806 5801 5797
5835 5834 5834 5833 5832 5831 5829 5830 5829 5828 5828 5829 5829 5829 5828 5827 5826 5825 5824 5823 5822 5820 5819 5818 5817 5815 5812 5809 5805 5800 5797 5793
5829 5829 5829 5828 5828 5827 5826 5824 5824 5823 5823 5823 5824 5823 5822 5821 5820 5818 5818 5818 5817 5815 5814 5813 5811 5808 5806 5803 5799 5795 5791 5788
5823 5822 5822 5822 5822 5821 5821 5820 5819 5819 5818 5818 5818 5818 5816 5815 5814 5813 5813 5813 5812 5810 5810 5808 5805 5803 5799 5796 5793 5790 5785 5781
5817 5817 5815 5815 5816 5816 5816 5816 5814 5814 5813 5812 5812 5811 5810 5810 5808 5808 5808 5807 5806 5805 5803 5801 5798 5796 5792 5790 5786 5783 5779 5776
5810 5810 5808 5810 5810 5811 5810 5810 5809 5809 5808 5807 5805 5804 5804 5804 5803 5802 5801 5801 5801 5799 5797 5795 5792 5790 5787 5783 5779 5775 5771 5767
5805 5803 5805 5803 5803 5805 5804 5805 5804 5803 5802 5801 5799 5798 5798 5798 5797 5795 5795 5794 5793 5792 5790 5788 5786 5783 5780 5776 5771 5767 5763 5758
5797 5797 5796 5797 5797 5798 5798 5798 5798 5797 5796 5795 5794 5793 5792 5791 5790 5789 5789 5788 5786 5785 5783 5781 5779 5776 5772 5767 5763 5759 5754 5749
5786 5786 5786 5787 5789 5791 5792 5792 5791 5790 5789 5788 5788 5787 5786 5785 5784 5783 5782 5781 5780 5778 5776 5774 5771 5767 5763 5759 5754 5749 5744 5739
Wind_Speed
6 8 11 12 11 10 9 8 7 8 7 4 3 7 4 3 4 4 7 7 7 9 9 9 10 10 11 13 14 15 17 18
8 9 11 9 10 10 10 9 7 8 8 7 7 5 7 5 4 4 5 5 8 9 10 12 11 12 14 16 17 18 19 20
9 9 9 8 7 10 11 9 5 7 7 8 4 5 6 5 4 4 6 7 8 9 10 11 13 14 15 16 18 20 21 21
10 10 9 7 7 8 7 6 6 6 7 8 0 3 1 1 2 4 6 6 7 9 10 12 13 15 15 18 21 22 22 22
10 11 8 6 5 6 7 8 4 5 6 4 3 1 2 1 2 3 4 5 8 11 12 12 14 15 17 18 20 22 23 23
11 11 8 4 2 5 7 7 5 2 1 2 4 5 2 1 2 2 3 6 8 10 10 10 12 15 15 17 19 21 23 24
11 11 8 4 2 2 4 6 6 3 2 1 2 4 4 2 2 1 4 8 9 9 9 12 15 15 14 14 14 17 21 23
12 11 9 6 4 4 3 3 5 5 2 2 0 2 5 5 4 7 8 10 10 11 12 14 13 14 15 17 20 22 24 24
13 11 10 9 6 6 4 5 4 5 6 3 3 4 5 6 9 10 12 13 10 11 13 16 15 15 17 21 24 27 29 30
15 14 12 11 9 8 8 7 7 6 7 7 7 7 8 8 10 12 14 14 11 11 15 17 17 17 19 23 26 28 30 31
16 16 14 12 11 10 11 11 11 10 10 10 9 9 9 10 12 15 17 18 14 15 17 17 17 18 20 23 26 28 30 31
17 16 16 15 13 11 10 12 13 13 13 14 12 12 13 13 14 16 19 18 16 18 17 16 17 19 21 24 27 29 30 31
21 17 17 16 15 13 11 12 13 14 14 15 16 16 16 16 16 17 21 19 17 16 16 16 19 20 24 27 29 30 31 32
26 19 18 17 16 15 14 13 13 12 14 16 18 18 18 18 18 18 20 19 17 17 18 20 22 23 26 29 31 32 32 32
29 22 18 18 17 16 16 16 14 14 13 16 17 17 18 18 20 20 18 18 20 19 21 23 25 27 29 32 34 35 34 35
28 29 20 17 18 18 17 18 17 16 16 16 17 16 17 19 19 19 18 20 21 23 25 26 28 31 33 34 37 39 39 37
31 28 19 18 19 19 19 20 19 19 18 18 17 17 18 20 19 20 20 21 23 26 28 29 31 33 35 37 40 42 42 41
32 32 24 21 19 20 20 21 22 22 21 21 19 19 19 20 20 20 21 22 25 27 29 31 33 35 37 40 43 45 44 43
37 36 31 23 21 20 22 23 24 24 23 24 23 22 21 21 21 21 22 24 27 28 31 33 34 37 39 41 44 46 44 44
41 41 39 24 22 25 24 24 26 26 24 25 24 24 23 23 23 24 25 27 29 29 32 34 36 39 41 43 45 43 46 46
Wind_Direction
320 327 332 336 333 325 324 324 316 320 340 329 1 10 14 14 24 358 7 15 18 25 20 9 4 352 346 344 336 327 318 312
319 331 336 330 327 332 332 326 300 299 318 302 285 291 346 336 10 9 19 29 40 37 28 20 4 356 351 345 340 332 327 324
327 333 332 322 318 319 314 314 325 311 302 317 302 317 261 332 1 32 50 54 49 33 23 9 358 354 349 342 335 330 329 328
329 329 325 326 345 349 349 318 311 314 292 308 95 12 211 278 14 61 69 51 37 18 6 357 353 350 342 337 332 333 335 337
327 323 317 317 349 359 12 22 352 309 309 310 281 268 228 151 91 84 69 41 9 351 350 349 347 344 337 338 344 347 345 345
316 318 305 309 14 13 13 26 26 1 338 277 279 299 240 152 73 60 18 349 336 330 333 328 334 337 343 345 343 341 341 338
304 311 297 293 308 356 19 12 10 348 320 259 291 287 250 259 301 288 306 314 319 314 319 333 336 333 335 328 335 341 342 340
291 298 293 286 289 300 340 357 348 327 299 294 149 258 245 246 259 293 309 310 313 320 330 328 322 325 328 335 342 343 343 341
279 284 289 288 290 294 297 310 322 324 296 259 270 278 253 281 298 306 312 313 311 314 315 310 315 327 337 346 344 344 342 341
282 276 282 285 289 292 289 284 291 297 296 283 267 252 259 282 296 309 320 315 306 303 301 310 321 331 339 342 340 341 339 338
286 282 276 281 287 287 287 282 282 280 277 282 284 275 266 279 295 306 314 311 302 299 307 318 324 327 332 333 335 334 334 334
286 280 276 275 283 284 289 285 276 275 274 271 270 274 276 279 290 300 304 301 297 300 310 316 317 320 323 323 324 325 327 328
281 275 271 273 281 281 282 290 284 273 267 267 267 271 273 277 285 294 301 296 288 294 300 305 310 313 313 314 317 318 321 326
279 266 262 265 276 283 283 285 288 279 265 263 263 264 270 276 280 283 288 282 284 288 291 299 301 304 307 310 310 314 319 325
279 261 256 259 270 278 284 286 290 281 269 263 260 266 272 274 278 279 277 278 282 285 292 295 300 302 303 304 306 312 317 322
277 268 246 254 269 279 284 288 287 280 272 268 267 270 277 277 277 275 271 277 281 287 292 296 297 298 299 302 306 311 314 320
288 270 250 252 267 278 285 289 289 282 277 270 266 269 273 274 275 271 272 278 286 290 294 297 298 300 302 304 306 307 311 318
275 283 279 262 265 273 283 289 290 287 281 275 268 267 271 273 273 272 277 280 285 289 295 297 301 304 306 306 305 306 312 319
269 272 270 262 264 273 281 289 288 287 283 278 273 271 274 275 277 279 282 285 286 292 298 302 306 308 307 304 307 309 315 322
268 267 267 242 258 271 280 284 285 285 284 279 278 272 272 275 280 283 284 286 293 298 301 305 306 304 305 308 313 314 322 323